SWA912 KMCO-MWCR

Flight info

Callsign SWA912
Flight time 1h 21m
Altitude 39000
Route FSHUN4 PLUMR DCT SHEEK Q118 FEMID Q79 MCLAW Y442 FUNDI UM335 ALVEK UM328 UCL DCT LACET L465 GCM
Aircraft B737/M-SDE2E3FGHIRWXY/LB1

Departure

Time 2026-05-06 15:29
Airport Orlando International Airport (KMCO)

Arrival

Time 2026-05-06 16:50
Airport Owen Roberts International Airport (MWCR)
Time Latitude Longitude Altitude Speed Heading
2026-05-06 15:01 28.43600 -81.30240 93 ft 0 kts 179°
2026-05-06 15:18 28.43620 -81.30240 93 ft 3 kts 179°
2026-05-06 15:19 28.43639 -81.30241 93 ft 3 kts 179°
2026-05-06 15:19 28.43657 -81.30241 93 ft 3 kts 179°
2026-05-06 15:19 28.43668 -81.30241 93 ft 0 kts 179°
2026-05-06 15:22 28.43667 -81.30241 93 ft 0 kts 179°
2026-05-06 15:22 28.43662 -81.30245 93 ft 2 kts 213°
2026-05-06 15:22 28.43666 -81.30267 93 ft 5 kts 312°
2026-05-06 15:22 28.43707 -81.30269 96 ft 7 kts
2026-05-06 15:23 28.43753 -81.30260 94 ft 7 kts
2026-05-06 15:23 28.43813 -81.30254 96 ft 9 kts
2026-05-06 15:23 28.43877 -81.30251 100 ft 10 kts 354°
2026-05-06 15:23 28.43911 -81.30313 101 ft 12 kts 276°
2026-05-06 15:24 28.43917 -81.30460 105 ft 20 kts 273°
2026-05-06 15:24 28.43927 -81.30617 105 ft 20 kts 275°
2026-05-06 15:24 28.43937 -81.30772 108 ft 20 kts 274°
2026-05-06 15:24 28.43941 -81.30936 106 ft 22 kts 270°
2026-05-06 15:25 28.43941 -81.31114 106 ft 23 kts 266°
2026-05-06 15:25 28.43931 -81.31293 106 ft 23 kts 266°
2026-05-06 15:25 28.43925 -81.31480 104 ft 24 kts 270°
2026-05-06 15:25 28.43923 -81.31664 106 ft 23 kts 269°
2026-05-06 15:26 28.43932 -81.31841 97 ft 21 kts 303°
2026-05-06 15:26 28.44064 -81.31895 98 ft 21 kts 353°
2026-05-06 15:26 28.44222 -81.31902 97 ft 24 kts 359°
2026-05-06 15:26 28.44387 -81.31903 99 ft 23 kts 359°
2026-05-06 15:27 28.44545 -81.31906 97 ft 22 kts 359°
2026-05-06 15:27 28.44697 -81.31907 97 ft 22 kts 359°
2026-05-06 15:27 28.44821 -81.31950 97 ft 17 kts 290°
2026-05-06 15:27 28.44822 -81.32071 96 ft 15 kts 269°
2026-05-06 15:28 28.44821 -81.32188 98 ft 14 kts 269°
2026-05-06 15:28 28.44768 -81.32233 98 ft 15 kts 179°
2026-05-06 15:28 28.44423 -81.32228 99 ft 85 kts 179°
2026-05-06 15:28 28.43620 -81.32218 100 ft 144 kts 179°
2026-05-06 15:29 28.42545 -81.32210 552 ft 155 kts 178°
2026-05-06 15:29 28.41420 -81.32183 1080 ft 168 kts 180°
2026-05-06 15:29 28.40266 -81.32227 1859 ft 167 kts 181°
2026-05-06 15:29 28.39043 -81.32268 2363 ft 185 kts 181°
2026-05-06 15:30 28.37697 -81.32324 2831 ft 201 kts 181°
2026-05-06 15:30 28.36235 -81.32393 3341 ft 218 kts 182°
2026-05-06 15:30 28.34635 -81.32481 3651 ft 250 kts 182°
2026-05-06 15:30 28.32804 -81.32585 4227 ft 266 kts 182°
2026-05-06 15:31 28.30990 -81.33045 4959 ft 276 kts 201°
2026-05-06 15:31 28.29179 -81.33884 5851 ft 285 kts 202°
2026-05-06 15:31 28.27336 -81.34759 6721 ft 292 kts 202°
2026-05-06 15:32 28.23542 -81.36517 8730 ft 298 kts 202°
2026-05-06 15:32 28.21602 -81.37392 9719 ft 302 kts 202°
2026-05-06 15:32 28.19626 -81.38273 10526 ft 312 kts 203°
2026-05-06 15:32 28.17524 -81.39256 10778 ft 341 kts 207°
2026-05-06 15:33 28.15349 -81.40575 10994 ft 366 kts 212°
2026-05-06 15:33 28.13110 -81.42073 11548 ft 379 kts 213°
2026-05-06 15:33 28.10833 -81.43620 12269 ft 384 kts 213°
2026-05-06 15:33 28.08522 -81.45179 13014 ft 390 kts 213°
2026-05-06 15:34 28.06160 -81.46753 13736 ft 396 kts 213°
2026-05-06 15:34 28.03758 -81.48335 14395 ft 401 kts 213°
2026-05-06 15:34 28.01364 -81.49900 15102 ft 403 kts 213°
2026-05-06 15:34 27.98923 -81.51487 15831 ft 405 kts 213°
2026-05-06 15:35 27.96468 -81.53079 16549 ft 407 kts 213°
2026-05-06 15:35 27.94000 -81.54677 17231 ft 410 kts 213°
2026-05-06 15:35 27.91510 -81.56290 17884 ft 414 kts 213°
2026-05-06 15:35 27.89003 -81.57913 18503 ft 417 kts 214°
2026-05-06 15:36 27.86477 -81.59547 19043 ft 420 kts 214°
2026-05-06 15:36 27.83924 -81.61199 19585 ft 423 kts 214°
2026-05-06 15:36 27.81365 -81.62853 20117 ft 426 kts 214°
2026-05-06 15:36 27.78781 -81.64522 20599 ft 430 kts 214°
2026-05-06 15:37 27.76169 -81.66209 21093 ft 433 kts 214°
2026-05-06 15:37 27.73549 -81.67899 21676 ft 434 kts 214°
2026-05-06 15:37 27.70922 -81.69593 22201 ft 436 kts 214°
2026-05-06 15:37 27.68309 -81.71278 22683 ft 440 kts 214°
2026-05-06 15:38 27.65642 -81.72997 23146 ft 443 kts 214°
2026-05-06 15:38 27.62954 -81.74726 23614 ft 446 kts 214°
2026-05-06 15:38 27.60080 -81.76132 23984 ft 457 kts 200°
2026-05-06 15:38 27.56917 -81.76727 24383 ft 467 kts 186°
2026-05-06 15:39 27.53643 -81.76461 24780 ft 475 kts 173°
2026-05-06 15:39 27.50368 -81.75733 25163 ft 479 kts 171°
2026-05-06 15:39 27.47140 -81.74947 25498 ft 482 kts 171°
2026-05-06 15:39 27.43853 -81.74140 25837 ft 485 kts 171°
2026-05-06 15:40 27.40536 -81.73345 26191 ft 487 kts 172°
2026-05-06 15:40 27.37208 -81.72573 26549 ft 489 kts 172°
2026-05-06 15:40 27.33863 -81.71816 26888 ft 492 kts 172°
2026-05-06 15:40 27.30496 -81.71065 27218 ft 494 kts 172°
2026-05-06 15:41 27.27107 -81.70313 27541 ft 497 kts 173°
2026-05-06 15:41 27.23711 -81.69560 27849 ft 499 kts 173°
2026-05-06 15:41 27.21447 -81.69058 28046 ft 501 kts 172°
2026-05-06 15:41 27.18021 -81.68297 28353 ft 503 kts 172°
2026-05-06 15:42 27.14579 -81.67531 28649 ft 505 kts 172°
2026-05-06 15:42 27.11125 -81.66762 28957 ft 507 kts 173°
2026-05-06 15:42 27.07657 -81.65991 29226 ft 509 kts 173°
2026-05-06 15:42 27.04169 -81.65218 29483 ft 512 kts 173°
2026-05-06 15:43 27.00650 -81.64458 29700 ft 515 kts 173°
2026-05-06 15:43 26.97110 -81.63711 29925 ft 518 kts 173°
2026-05-06 15:43 26.93565 -81.62968 30203 ft 519 kts 173°
2026-05-06 15:43 26.90016 -81.62224 30529 ft 517 kts 173°
2026-05-06 15:44 26.86536 -81.61493 30958 ft 514 kts 173°
2026-05-06 15:44 26.83028 -81.60753 31360 ft 512 kts 173°
2026-05-06 15:44 26.79526 -81.60015 31705 ft 512 kts 173°
2026-05-06 15:44 26.76027 -81.59277 32037 ft 512 kts 173°
2026-05-06 15:45 26.72530 -81.58540 32405 ft 511 kts 173°
2026-05-06 15:45 26.69032 -81.57802 32825 ft 510 kts 173°
2026-05-06 15:45 26.65555 -81.57070 33229 ft 508 kts 174°
2026-05-06 15:45 26.62081 -81.56339 33634 ft 507 kts 174°
2026-05-06 15:46 26.58614 -81.55610 33996 ft 506 kts 173°
2026-05-06 15:46 26.55157 -81.54883 34347 ft 505 kts 173°
2026-05-06 15:46 26.51712 -81.54160 34676 ft 504 kts 173°
2026-05-06 15:46 26.48266 -81.53436 34998 ft 503 kts 174°
2026-05-06 15:47 26.44830 -81.52715 35295 ft 502 kts 174°
2026-05-06 15:47 26.41397 -81.51996 35600 ft 501 kts 174°
2026-05-06 15:47 26.37975 -81.51279 35909 ft 500 kts 174°
2026-05-06 15:47 26.34559 -81.50564 36210 ft 499 kts 174°
2026-05-06 15:48 26.31191 -81.49859 36471 ft 498 kts 174°
2026-05-06 15:48 26.27777 -81.49145 36777 ft 497 kts 174°
2026-05-06 15:48 26.24391 -81.48437 37093 ft 495 kts 174°
2026-05-06 15:48 26.21007 -81.47730 37377 ft 494 kts 174°
2026-05-06 15:49 26.17632 -81.47025 37621 ft 493 kts 174°
2026-05-06 15:49 26.14259 -81.46322 37863 ft 493 kts 174°
2026-05-06 15:49 26.10890 -81.45610 38139 ft 492 kts 172°
2026-05-06 15:49 26.07551 -81.44678 38408 ft 493 kts 168°
2026-05-06 15:50 26.04257 -81.43591 38692 ft 493 kts 167°
2026-05-06 15:50 26.01023 -81.42461 38899 ft 492 kts 166°
2026-05-06 15:50 25.97767 -81.41309 39051 ft 490 kts 166°
2026-05-06 15:50 25.94511 -81.40168 39082 ft 490 kts 166°
2026-05-06 15:51 25.87979 -81.37930 39096 ft 491 kts 167°
2026-05-06 15:51 25.81432 -81.35731 39098 ft 491 kts 167°
2026-05-06 15:52 25.74882 -81.33543 39097 ft 492 kts 167°
2026-05-06 15:52 25.68364 -81.31366 39080 ft 492 kts 167°
2026-05-06 15:53 25.61807 -81.29176 39093 ft 491 kts 167°
2026-05-06 15:53 25.55267 -81.26993 39086 ft 491 kts 166°
2026-05-06 15:54 25.48727 -81.24813 39096 ft 490 kts 166°
2026-05-06 15:54 25.42197 -81.22639 39095 ft 490 kts 166°
2026-05-06 15:55 25.35663 -81.20467 39090 ft 489 kts 166°
2026-05-06 15:55 25.29139 -81.18300 39096 ft 489 kts 166°
2026-05-06 15:56 25.22659 -81.16150 39095 ft 489 kts 166°
2026-05-06 15:56 25.16139 -81.13989 39098 ft 489 kts 166°
2026-05-06 15:57 25.09622 -81.11831 39096 ft 488 kts 166°
2026-05-06 15:57 25.03106 -81.09676 39096 ft 488 kts 166°
2026-05-06 15:58 24.96639 -81.07540 39094 ft 487 kts 166°
2026-05-06 15:58 24.90136 -81.05393 39099 ft 487 kts 166°
2026-05-06 15:59 24.83647 -81.03254 39100 ft 487 kts 166°
2026-05-06 15:59 24.77116 -81.01280 39092 ft 483 kts 174°
2026-05-06 16:00 24.70471 -81.01001 39110 ft 475 kts 187°
2026-05-06 16:00 24.63899 -81.01385 39104 ft 476 kts 186°
2026-05-06 16:01 24.57260 -81.01676 39087 ft 477 kts 186°
2026-05-06 16:01 24.50609 -81.01750 39085 ft 479 kts 183°
2026-05-06 16:02 24.43932 -81.01634 39088 ft 480 kts 182°
2026-05-06 16:02 24.37249 -81.01533 39087 ft 480 kts 183°
2026-05-06 16:03 24.30607 -81.01466 39090 ft 480 kts 183°
2026-05-06 16:03 24.23908 -81.01410 39090 ft 481 kts 183°
2026-05-06 16:04 24.17213 -81.01352 39090 ft 481 kts 183°
2026-05-06 16:04 24.10523 -81.01293 39085 ft 481 kts 183°
2026-05-06 16:05 24.03825 -81.01234 39090 ft 481 kts 183°
2026-05-06 16:05 23.97131 -81.01137 39096 ft 481 kts 181°
2026-05-06 16:06 23.90421 -81.00844 39096 ft 482 kts 181°
2026-05-06 16:06 23.83721 -81.00516 39095 ft 482 kts 181°
2026-05-06 16:07 23.77055 -81.00214 39082 ft 482 kts 181°
2026-05-06 16:07 23.70342 -80.99925 39095 ft 482 kts 181°
2026-05-06 16:08 23.63631 -80.99640 39096 ft 483 kts 181°
2026-05-06 16:08 23.56910 -80.99354 39094 ft 483 kts 181°
2026-05-06 16:09 23.50180 -80.99067 39092 ft 484 kts 181°
2026-05-06 16:09 23.43491 -80.98781 39086 ft 484 kts 180°
2026-05-06 16:10 23.36745 -80.98494 39092 ft 484 kts 180°
2026-05-06 16:10 23.30000 -80.98206 39087 ft 485 kts 180°
2026-05-06 16:11 23.23262 -80.97925 39086 ft 485 kts 181°
2026-05-06 16:11 23.16512 -80.97655 39078 ft 485 kts 181°
2026-05-06 16:12 23.09771 -80.97384 39085 ft 485 kts 180°
2026-05-06 16:12 23.03045 -80.97355 39076 ft 481 kts 190°
2026-05-06 16:13 22.96675 -80.99076 39093 ft 472 kts 204°
2026-05-06 16:13 22.90520 -81.01612 39087 ft 472 kts 205°
2026-05-06 16:14 22.84377 -81.04142 39068 ft 472 kts 204°
2026-05-06 16:14 22.78216 -81.06632 39086 ft 472 kts 204°
2026-05-06 16:15 22.72043 -81.09101 39071 ft 473 kts 204°
2026-05-06 16:15 22.65898 -81.11553 39084 ft 473 kts 204°
2026-05-06 16:16 22.59715 -81.14018 39072 ft 473 kts 204°
2026-05-06 16:16 22.53534 -81.16483 39065 ft 473 kts 204°
2026-05-06 16:17 22.47345 -81.18948 39070 ft 473 kts 203°
2026-05-06 16:17 22.41156 -81.21411 39075 ft 473 kts 203°
2026-05-06 16:18 22.34970 -81.23870 39066 ft 474 kts 203°
2026-05-06 16:18 22.28813 -81.26315 39067 ft 473 kts 203°
2026-05-06 16:19 22.22627 -81.28770 39069 ft 473 kts 203°
2026-05-06 16:19 22.16447 -81.31220 39070 ft 473 kts 203°
2026-05-06 16:20 22.10271 -81.33666 39071 ft 472 kts 203°
2026-05-06 16:20 22.04097 -81.36109 39075 ft 472 kts 203°
2026-05-06 16:21 21.97951 -81.38539 39073 ft 472 kts 203°
2026-05-06 16:21 21.91777 -81.40978 39071 ft 472 kts 203°
2026-05-06 16:22 21.85618 -81.43408 39067 ft 471 kts 203°
2026-05-06 16:22 21.79453 -81.45839 39074 ft 471 kts 203°
2026-05-06 16:23 21.73328 -81.48252 39071 ft 472 kts 203°
2026-05-06 16:23 21.67153 -81.50683 39071 ft 472 kts 203°
2026-05-06 16:24 21.60976 -81.53092 39067 ft 473 kts 200°
2026-05-06 16:24 21.54513 -81.54581 39066 ft 476 kts 191°
2026-05-06 16:25 21.47963 -81.55738 39067 ft 477 kts 191°
2026-05-06 16:25 21.41454 -81.56904 39068 ft 477 kts 192°
2026-05-06 16:26 21.34912 -81.58119 39068 ft 477 kts 192°
2026-05-06 16:26 21.28367 -81.59352 39068 ft 477 kts 192°
2026-05-06 16:27 21.21815 -81.60587 39068 ft 478 kts 192°
2026-05-06 16:27 21.16372 -81.61611 39068 ft 478 kts 192°
2026-05-06 16:28 21.08740 -81.63044 39069 ft 478 kts 192°
2026-05-06 16:28 21.03285 -81.64067 39068 ft 478 kts 192°
2026-05-06 16:29 20.96731 -81.65295 39065 ft 478 kts 192°
2026-05-06 16:29 20.90153 -81.66527 38467 ft 485 kts 191°
2026-05-06 16:30 20.86832 -81.67149 37834 ft 482 kts 191°
2026-05-06 16:30 20.84648 -81.67557 37383 ft 481 kts 191°
2026-05-06 16:30 20.80231 -81.68383 36464 ft 480 kts 191°
2026-05-06 16:30 20.76947 -81.68996 35753 ft 480 kts 191°
2026-05-06 16:31 20.73649 -81.69612 34954 ft 482 kts 191°
2026-05-06 16:31 20.70371 -81.70224 34128 ft 486 kts 191°
2026-05-06 16:31 20.67023 -81.70850 33156 ft 489 kts 191°
2026-05-06 16:31 20.63651 -81.71479 32230 ft 491 kts 190°
2026-05-06 16:32 20.60279 -81.72107 31271 ft 494 kts 190°
2026-05-06 16:32 20.56873 -81.72741 30264 ft 497 kts 189°
2026-05-06 16:32 20.53496 -81.73369 29061 ft 501 kts 189°
2026-05-06 16:32 20.50045 -81.74012 27890 ft 504 kts 189°
2026-05-06 16:33 20.46603 -81.74652 27094 ft 498 kts 189°
2026-05-06 16:33 20.43200 -81.75286 26262 ft 493 kts 189°
2026-05-06 16:33 20.39836 -81.75912 25442 ft 489 kts 189°
2026-05-06 16:34 20.33168 -81.77151 23808 ft 483 kts 189°
2026-05-06 16:34 20.29903 -81.77757 22885 ft 481 kts 189°
2026-05-06 16:34 20.26625 -81.78366 22024 ft 476 kts 189°
2026-05-06 16:34 20.23372 -81.78970 21186 ft 471 kts 189°
2026-05-06 16:35 20.20155 -81.79567 20360 ft 467 kts 189°
2026-05-06 16:35 20.16965 -81.80158 19535 ft 463 kts 189°
2026-05-06 16:35 20.13794 -81.80746 18718 ft 460 kts 189°
2026-05-06 16:35 20.10650 -81.81329 17826 ft 457 kts 189°
2026-05-06 16:36 20.07530 -81.81906 16939 ft 452 kts 189°
2026-05-06 16:36 20.04485 -81.82467 16111 ft 435 kts 188°
2026-05-06 16:36 20.01531 -81.82687 15527 ft 420 kts 177°
2026-05-06 16:36 19.98645 -81.82406 15371 ft 421 kts 170°
2026-05-06 16:37 19.95810 -81.81700 15235 ft 415 kts 160°
2026-05-06 16:37 19.93123 -81.80623 15129 ft 408 kts 157°
2026-05-06 16:37 19.90528 -81.79545 14822 ft 392 kts 157°
2026-05-06 16:37 19.88023 -81.78500 13983 ft 385 kts 157°
2026-05-06 16:38 19.85494 -81.77450 12917 ft 393 kts 158°
2026-05-06 16:38 19.82948 -81.76398 12195 ft 391 kts 158°
2026-05-06 16:38 19.80431 -81.75365 11626 ft 383 kts 158°
2026-05-06 16:38 19.77986 -81.74365 11033 ft 370 kts 158°
2026-05-06 16:39 19.75642 -81.73408 10667 ft 351 kts 158°
2026-05-06 16:39 19.73434 -81.72510 10431 ft 330 kts 158°
2026-05-06 16:39 19.71382 -81.71675 10271 ft 310 kts 158°
2026-05-06 16:39 19.69419 -81.70879 10138 ft 295 kts 158°
2026-05-06 16:40 19.67535 -81.70112 10007 ft 284 kts 158°
2026-05-06 16:40 19.65694 -81.69364 9638 ft 282 kts 158°
2026-05-06 16:40 19.63868 -81.68622 9311 ft 279 kts 158°
2026-05-06 16:40 19.62062 -81.67889 8964 ft 277 kts 158°
2026-05-06 16:41 19.60268 -81.67161 8634 ft 274 kts 157°
2026-05-06 16:41 19.58495 -81.66441 8301 ft 272 kts 157°
2026-05-06 16:41 19.56736 -81.65726 7961 ft 270 kts 157°
2026-05-06 16:41 19.54987 -81.65017 7629 ft 268 kts 157°
2026-05-06 16:42 19.53276 -81.64322 7306 ft 266 kts 157°
2026-05-06 16:42 19.51553 -81.63623 6981 ft 264 kts 157°
2026-05-06 16:42 19.49837 -81.62927 6663 ft 262 kts 156°
2026-05-06 16:42 19.48137 -81.62238 6335 ft 261 kts 156°
2026-05-06 16:43 19.46443 -81.61551 5992 ft 259 kts 156°
2026-05-06 16:43 19.44768 -81.60872 5673 ft 257 kts 156°
2026-05-06 16:43 19.43111 -81.60201 5367 ft 254 kts 156°
2026-05-06 16:43 19.41461 -81.59532 5021 ft 253 kts 156°
2026-05-06 16:44 19.39820 -81.58867 4698 ft 251 kts 156°
2026-05-06 16:44 19.38193 -81.58208 4367 ft 250 kts 156°
2026-05-06 16:44 19.36571 -81.57550 4039 ft 248 kts 156°
2026-05-06 16:44 19.34983 -81.56907 3736 ft 246 kts 156°
2026-05-06 16:45 19.33393 -81.56264 3635 ft 238 kts 156°
2026-05-06 16:45 19.31895 -81.55657 3508 ft 229 kts 156°
2026-05-06 16:45 19.30435 -81.55068 3403 ft 219 kts 157°
2026-05-06 16:45 19.29041 -81.54504 3308 ft 210 kts 156°
2026-05-06 16:46 19.27705 -81.53963 3218 ft 200 kts 156°
2026-05-06 16:46 19.26462 -81.53357 3058 ft 195 kts 138°
2026-05-06 16:46 19.25738 -81.52186 2897 ft 194 kts 105°
2026-05-06 16:46 19.25706 -81.50757 2662 ft 198 kts 79°
2026-05-06 16:47 19.26039 -81.49343 2420 ft 196 kts 78°
2026-05-06 16:47 19.26368 -81.47973 2140 ft 192 kts 77°
2026-05-06 16:47 19.26690 -81.46629 1906 ft 184 kts 77°
2026-05-06 16:47 19.27000 -81.45338 1664 ft 178 kts 78°
2026-05-06 16:48 19.27299 -81.44089 1408 ft 170 kts 77°
2026-05-06 16:48 19.27579 -81.42924 1224 ft 154 kts 77°
2026-05-06 16:48 19.27823 -81.41912 1084 ft 135 kts 78°
2026-05-06 16:48 19.28040 -81.40979 893 ft 128 kts 78°
2026-05-06 16:49 19.28252 -81.40080 683 ft 126 kts 75°
2026-05-06 16:49 19.28475 -81.39158 484 ft 133 kts 79°
2026-05-06 16:49 19.28701 -81.38213 331 ft 131 kts 78°
2026-05-06 16:49 19.28929 -81.37249 149 ft 136 kts 78°
2026-05-06 16:50 19.29158 -81.36294 17 ft 127 kts 78°
2026-05-06 16:50 19.29312 -81.35636 14 ft 58 kts 76°
2026-05-06 16:50 19.29368 -81.35393 13 ft 19 kts 83°
2026-05-06 16:50 19.29390 -81.35362 14 ft 2 kts 299°
2026-05-06 16:51 19.29381 -81.35387 15 ft 5 kts 252°
2026-05-06 16:51 19.29360 -81.35457 13 ft 14 kts 252°
2026-05-06 16:51 19.29349 -81.35555 14 ft 14 kts 301°
2026-05-06 16:51 19.29430 -81.35585 14 ft 9 kts 347°
2026-05-06 16:52 19.29465 -81.35594 15 ft 2 kts 346°
2026-05-06 16:52 19.29471 -81.35595 15 ft 0 kts 346°
2026-05-06 16:53 19.29476 -81.35597 15 ft 2 kts 346°
2026-05-06 16:53 19.29500 -81.35603 15 ft 4 kts 347°
2026-05-06 16:53 19.29526 -81.35609 15 ft 4 kts 347°
2026-05-06 16:54 19.29533 -81.35611 15 ft 0 kts 347°